contact:dominique.lefevre@mio.osupytheas.fr, maurice.libes@osupytheas.fr, didier.mallarino@osupytheas.fr
Project:EMSO http://www.emso-fr.org/EMSO-France
Depth: 2436.0 m
Title:EMSO Ligure Ouest : Data MII capteur CSTAR
DateTime,Latitude,Longitude,Instrument_Serial,Reference_Counts,Signal_Counts,Corrected_Signal_raw_counts,Calculated_Beam_c_inverse_meters,Internal_thermistor_counts
DateTime,Latitude,Longitude,Instrument_Serial,Reference_Counts,Signal_Counts,Corrected_Signal_raw_counts,Calculated_Beam_c_inverse_meters,Internal_thermistor_counts
2019-09-17T00:00:48,42.805,6.029,CST-1368DR,7971,11162,15388,0.059,551
2019-09-17T00:03:49,42.805,6.029,CST-1368DR,7970,11158,15385,0.060,551
2019-09-17T00:06:51,42.805,6.029,CST-1368DR,7971,11161,15388,0.059,550
2019-09-17T00:09:52,42.805,6.029,CST-1368DR,7970,11160,15387,0.059,551
2019-09-17T00:12:54,42.805,6.029,CST-1368DR,7970,11156,15382,0.060,551
2019-09-17T00:15:56,42.805,6.029,CST-1368DR,7971,11160,15387,0.059,551
2019-09-17T00:18:57,42.805,6.029,CST-1368DR,7970,11159,15387,0.059,551
2019-09-17T00:21:59,42.805,6.029,CST-1368DR,7970,11160,15388,0.059,551
2019-09-17T00:25:01,42.805,6.029,CST-1368DR,7970,11161,15389,0.059,551
2019-09-17T00:28:02,42.805,6.029,CST-1368DR,7970,11161,15389,0.059,551
2019-09-17T00:31:04,42.805,6.029,CST-1368DR,7970,11160,15387,0.059,551
2019-09-17T00:34:05,42.805,6.029,CST-1368DR,7970,11159,15386,0.059,551
2019-09-17T00:37:07,42.805,6.029,CST-1368DR,7970,11162,15390,0.058,551
2019-09-17T00:40:09,42.805,6.029,CST-1368DR,7970,11160,15388,0.059,551
2019-09-17T00:43:10,42.805,6.029,CST-1368DR,7970,11158,15386,0.059,551
2019-09-17T00:46:12,42.805,6.029,CST-1368DR,7970,11161,15390,0.058,551
2019-09-17T00:49:14,42.805,6.029,CST-1368DR,7970,11160,15388,0.059,551
2019-09-17T00:52:15,42.805,6.029,CST-1368DR,7970,11159,15386,0.059,551
2019-09-17T00:55:17,42.805,6.029,CST-1368DR,7970,11158,15386,0.059,551
2019-09-17T00:58:19,42.805,6.029,CST-1368DR,7970,11162,15390,0.058,551
2019-09-17T01:01:21,42.805,6.029,CST-1368DR,7970,11160,15387,0.059,551
2019-09-17T01:04:23,42.805,6.029,CST-1368DR,7970,11160,15388,0.059,551
2019-09-17T01:07:24,42.805,6.029,CST-1368DR,7970,11160,15388,0.059,551
2019-09-17T01:10:26,42.805,6.029,CST-1368DR,7970,11159,15387,0.059,551
2019-09-17T01:13:28,42.805,6.029,CST-1368DR,7970,11160,15388,0.059,551
2019-09-17T01:16:29,42.805,6.029,CST-1368DR,7970,11161,15389,0.059,551
2019-09-17T01:19:31,42.805,6.029,CST-1368DR,7970,11159,15387,0.059,551
2019-09-17T01:22:33,42.805,6.029,CST-1368DR,7970,11160,15387,0.059,551
2019-09-17T01:25:34,42.805,6.029,CST-1368DR,7970,11159,15386,0.059,551
2019-09-17T01:28:36,42.805,6.029,CST-1368DR,7970,11160,15387,0.059,551
2019-09-17T01:31:38,42.805,6.029,CST-1368DR,7970,11160,15388,0.059,551
2019-09-17T01:34:39,42.805,6.029,CST-1368DR,7970,11160,15388,0.059,550
2019-09-17T01:37:41,42.805,6.029,CST-1368DR,7970,11157,15384,0.060,551
2019-09-17T01:40:43,42.805,6.029,CST-1368DR,7970,11155,15381,0.061,551
2019-09-17T01:43:44,42.805,6.029,CST-1368DR,7970,11159,15386,0.059,551
2019-09-17T01:46:46,42.805,6.029,CST-1368DR,7970,11158,15385,0.060,550
2019-09-17T01:49:47,42.805,6.029,CST-1368DR,7970,11160,15388,0.059,551
2019-09-17T01:52:49,42.805,6.029,CST-1368DR,7970,11159,15386,0.059,551
2019-09-17T01:55:51,42.805,6.029,CST-1368DR,7969,11160,15389,0.059,551
2019-09-17T01:58:52,42.805,6.029,CST-1368DR,7969,11160,15390,0.058,551
2019-09-17T02:01:54,42.805,6.029,CST-1368DR,7969,11157,15385,0.060,551
2019-09-17T02:04:56,42.805,6.029,CST-1368DR,7969,11158,15387,0.059,550
2019-09-17T02:07:57,42.805,6.029,CST-1368DR,7969,11160,15390,0.058,551
2019-09-17T02:10:59,42.805,6.029,CST-1368DR,7969,11159,15389,0.059,550
2019-09-17T02:14:00,42.805,6.029,CST-1368DR,7969,11158,15387,0.059,551
2019-09-17T02:17:02,42.805,6.029,CST-1368DR,7969,11159,15388,0.059,551
2019-09-17T02:20:04,42.805,6.029,CST-1368DR,7969,11158,15387,0.059,550
2019-09-17T02:23:05,42.805,6.029,CST-1368DR,7969,11159,15388,0.059,551
2019-09-17T02:26:07,42.805,6.029,CST-1368DR,7969,11156,15385,0.060,550
2019-09-17T02:29:09,42.805,6.029,CST-1368DR,7969,11157,15385,0.060,551
2019-09-17T02:32:10,42.805,6.029,CST-1368DR,7969,11159,15388,0.059,551
2019-09-17T02:35:12,42.805,6.029,CST-1368DR,7969,11159,15388,0.059,550
2019-09-17T02:38:14,42.805,6.029,CST-1368DR,7969,11152,15379,0.061,551
2019-09-17T02:41:15,42.805,6.029,CST-1368DR,7969,11159,15388,0.059,551
2019-09-17T02:44:17,42.805,6.029,CST-1368DR,7969,11159,15388,0.059,551
2019-09-17T02:47:18,42.805,6.029,CST-1368DR,7969,11157,15386,0.059,550
2019-09-17T02:50:20,42.805,6.029,CST-1368DR,7969,11159,15388,0.059,551
2019-09-17T02:53:22,42.805,6.029,CST-1368DR,7969,11158,15387,0.059,551
2019-09-17T02:56:23,42.805,6.029,CST-1368DR,7969,11156,15385,0.060,551
2019-09-17T02:59:25,42.805,6.029,CST-1368DR,7969,11158,15386,0.059,550
2019-09-17T03:02:27,42.805,6.029,CST-1368DR,7969,11156,15384,0.060,550
2019-09-17T03:05:28,42.805,6.029,CST-1368DR,7969,11157,15386,0.059,551
2019-09-17T03:08:30,42.805,6.029,CST-1368DR,7969,11154,15381,0.061,551
2019-09-17T03:11:32,42.805,6.029,CST-1368DR,7969,11155,15382,0.060,551
2019-09-17T03:14:33,42.805,6.029,CST-1368DR,7969,11152,15379,0.061,551
2019-09-17T03:17:35,42.805,6.029,CST-1368DR,7969,11154,15382,0.060,551
2019-09-17T03:20:36,42.805,6.029,CST-1368DR,7968,11155,15384,0.060,551
2019-09-17T03:23:38,42.805,6.029,CST-1368DR,7968,11152,15380,0.061,551
2019-09-17T03:26:40,42.805,6.029,CST-1368DR,7968,11156,15385,0.060,551
2019-09-17T03:29:42,42.805,6.029,CST-1368DR,7968,11155,15384,0.060,551
2019-09-17T03:32:43,42.805,6.029,CST-1368DR,7968,11155,15385,0.060,551
2019-09-17T03:35:45,42.805,6.029,CST-1368DR,7968,11154,15383,0.060,550
2019-09-17T03:38:47,42.805,6.029,CST-1368DR,7968,11154,15383,0.060,550
2019-09-17T03:41:48,42.805,6.029,CST-1368DR,7968,11153,15382,0.060,551
2019-09-17T03:44:50,42.805,6.029,CST-1368DR,7968,11154,15383,0.060,551
2019-09-17T03:47:51,42.805,6.029,CST-1368DR,7968,11157,15387,0.059,550
2019-09-17T03:50:53,42.805,6.029,CST-1368DR,7968,11157,15387,0.059,551
2019-09-17T03:53:55,42.805,6.029,CST-1368DR,7968,11155,15385,0.060,551
2019-09-17T03:56:56,42.805,6.029,CST-1368DR,7968,11154,15383,0.060,551
2019-09-17T03:59:58,42.805,6.029,CST-1368DR,7968,11152,15381,0.061,550
2019-09-17T04:03:00,42.805,6.029,CST-1368DR,7967,11153,15383,0.060,551
2019-09-17T04:06:01,42.805,6.029,CST-1368DR,7967,11154,15385,0.060,551
2019-09-17T04:09:03,42.805,6.029,CST-1368DR,7967,11154,15384,0.060,551
2019-09-17T04:12:04,42.805,6.029,CST-1368DR,7967,11152,15383,0.060,551
2019-09-17T04:15:06,42.805,6.029,CST-1368DR,7967,11144,15371,0.063,551
2019-09-17T04:18:08,42.805,6.029,CST-1368DR,7967,11154,15385,0.060,551
2019-09-17T04:21:09,42.805,6.029,CST-1368DR,7967,11153,15383,0.060,550
2019-09-17T04:24:11,42.805,6.029,CST-1368DR,7967,11139,15364,0.065,551
2019-09-17T04:27:13,42.805,6.029,CST-1368DR,7967,11154,15385,0.060,551
2019-09-17T04:30:14,42.805,6.029,CST-1368DR,7968,11155,15385,0.060,551
2019-09-17T04:33:16,42.805,6.029,CST-1368DR,7968,11157,15387,0.059,551
2019-09-17T04:36:18,42.805,6.029,CST-1368DR,7968,11154,15384,0.060,551
2019-09-17T04:39:19,42.805,6.029,CST-1368DR,7968,11149,15376,0.062,550
2019-09-17T04:42:21,42.805,6.029,CST-1368DR,7968,11159,15390,0.058,550
2019-09-17T04:45:23,42.805,6.029,CST-1368DR,7968,11157,15387,0.059,551
2019-09-17T04:48:24,42.805,6.029,CST-1368DR,7968,11158,15389,0.059,551
2019-09-17T04:51:26,42.805,6.029,CST-1368DR,7968,11157,15388,0.059,551
2019-09-17T04:54:27,42.805,6.029,CST-1368DR,7968,11158,15388,0.059,551
2019-09-17T04:57:29,42.805,6.029,CST-1368DR,7968,11159,15391,0.058,550
2019-09-17T05:00:31,42.805,6.029,CST-1368DR,7968,11155,15384,0.060,550
2019-09-17T05:03:32,42.805,6.029,CST-1368DR,7968,11158,15388,0.059,551
2019-09-17T05:06:34,42.805,6.029,CST-1368DR,7968,11160,15392,0.058,550
2019-09-17T05:09:36,42.805,6.029,CST-1368DR,7968,11158,15388,0.059,551
2019-09-17T05:12:37,42.805,6.029,CST-1368DR,7968,11150,15378,0.061,551
2019-09-17T05:15:39,42.805,6.029,CST-1368DR,7968,11158,15388,0.059,551
2019-09-17T05:18:41,42.805,6.029,CST-1368DR,7968,11158,15388,0.059,550
2019-09-17T05:21:42,42.805,6.029,CST-1368DR,7968,11156,15386,0.059,551
2019-09-17T05:24:44,42.805,6.029,CST-1368DR,7968,11157,15387,0.059,550
2019-09-17T05:27:46,42.805,6.029,CST-1368DR,7968,11156,15386,0.059,550
2019-09-17T05:30:47,42.805,6.029,CST-1368DR,7968,11158,15389,0.059,551
2019-09-17T05:33:49,42.805,6.029,CST-1368DR,7968,11156,15386,0.059,551
2019-09-17T05:36:50,42.805,6.029,CST-1368DR,7968,11153,15382,0.060,551
2019-09-17T05:39:52,42.805,6.029,CST-1368DR,7968,11155,15385,0.060,551
2019-09-17T05:42:54,42.805,6.029,CST-1368DR,7968,11155,15385,0.060,550
2019-09-17T05:45:55,42.805,6.029,CST-1368DR,7968,11157,15387,0.059,551
2019-09-17T05:48:57,42.805,6.029,CST-1368DR,7968,11157,15388,0.059,551
2019-09-17T05:51:59,42.805,6.029,CST-1368DR,7968,11157,15388,0.059,551
2019-09-17T05:55:00,42.805,6.029,CST-1368DR,7968,11157,15388,0.059,551
2019-09-17T05:58:02,42.805,6.029,CST-1368DR,7968,11156,15385,0.060,551
2019-09-17T06:01:04,42.805,6.029,CST-1368DR,7968,11158,15389,0.059,551
2019-09-17T06:04:05,42.805,6.029,CST-1368DR,7968,11155,15384,0.060,551
2019-09-17T06:07:07,42.805,6.029,CST-1368DR,7968,11158,15388,0.059,551
2019-09-17T06:10:08,42.805,6.029,CST-1368DR,7968,11154,15383,0.060,551
2019-09-17T06:13:10,42.805,6.029,CST-1368DR,7968,11158,15388,0.059,551
2019-09-17T06:16:12,42.805,6.029,CST-1368DR,7968,11156,15385,0.060,551
2019-09-17T06:19:13,42.805,6.029,CST-1368DR,7968,11155,15384,0.060,550
2019-09-17T06:22:15,42.805,6.029,CST-1368DR,7968,11159,15390,0.058,550
2019-09-17T06:25:17,42.805,6.029,CST-1368DR,7968,11155,15384,0.060,551
2019-09-17T06:28:19,42.805,6.029,CST-1368DR,7968,11156,15386,0.059,551
2019-09-17T06:31:21,42.805,6.029,CST-1368DR,7968,11158,15388,0.059,551
2019-09-17T06:34:22,42.805,6.029,CST-1368DR,7968,11158,15389,0.059,551
2019-09-17T06:37:24,42.805,6.029,CST-1368DR,7968,11155,15385,0.060,551
2019-09-17T06:40:26,42.805,6.029,CST-1368DR,7968,11155,15385,0.060,551
2019-09-17T06:43:27,42.805,6.029,CST-1368DR,7968,11156,15386,0.059,550
2019-09-17T06:46:29,42.805,6.029,CST-1368DR,7968,11158,15388,0.059,551
2019-09-17T06:49:30,42.805,6.029,CST-1368DR,7968,11156,15386,0.059,551
2019-09-17T06:52:32,42.805,6.029,CST-1368DR,7968,11158,15388,0.059,551
2019-09-17T06:55:34,42.805,6.029,CST-1368DR,7968,11159,15390,0.058,551
2019-09-17T06:58:35,42.805,6.029,CST-1368DR,7968,11157,15387,0.059,551
2019-09-17T07:01:37,42.805,6.029,CST-1368DR,7968,11156,15386,0.059,551
2019-09-17T07:04:39,42.805,6.029,CST-1368DR,7968,11156,15386,0.059,551
2019-09-17T07:07:40,42.805,6.029,CST-1368DR,7968,11156,15386,0.059,551
2019-09-17T07:10:42,42.805,6.029,CST-1368DR,7968,11157,15388,0.059,551
2019-09-17T07:13:44,42.805,6.029,CST-1368DR,7968,11158,15388,0.059,551
2019-09-17T07:16:45,42.805,6.029,CST-1368DR,7968,11158,15389,0.059,551
2019-09-17T07:19:47,42.805,6.029,CST-1368DR,7968,11158,15389,0.059,551
2019-09-17T07:22:48,42.805,6.029,CST-1368DR,7968,11159,15390,0.058,551
2019-09-17T07:25:50,42.805,6.029,CST-1368DR,7968,11158,15388,0.059,551
2019-09-17T07:28:52,42.805,6.029,CST-1368DR,7968,11158,15388,0.059,551
2019-09-17T07:31:53,42.805,6.029,CST-1368DR,7968,11158,15389,0.059,551
2019-09-17T07:34:55,42.805,6.029,CST-1368DR,7968,11159,15390,0.058,551
2019-09-17T07:37:57,42.805,6.029,CST-1368DR,7968,11158,15389,0.059,551
2019-09-17T07:40:58,42.805,6.029,CST-1368DR,7968,11156,15386,0.059,551
2019-09-17T07:44:00,42.805,6.029,CST-1368DR,7968,11159,15390,0.058,551
2019-09-17T07:47:02,42.805,6.029,CST-1368DR,7968,11159,15390,0.058,551
2019-09-17T07:50:03,42.805,6.029,CST-1368DR,7968,11158,15389,0.059,551
2019-09-17T07:53:05,42.805,6.029,CST-1368DR,7968,11159,15390,0.058,551
2019-09-17T07:56:06,42.805,6.029,CST-1368DR,7968,11157,15388,0.059,550
2019-09-17T07:59:08,42.805,6.029,CST-1368DR,7968,11156,15386,0.059,551
2019-09-17T08:02:10,42.805,6.029,CST-1368DR,7968,11157,15387,0.059,550
2019-09-17T08:05:11,42.805,6.029,CST-1368DR,7968,11156,15386,0.059,551
2019-09-17T08:08:13,42.805,6.029,CST-1368DR,7968,11158,15388,0.059,551
2019-09-17T08:11:15,42.805,6.029,CST-1368DR,7968,11157,15387,0.059,551
2019-09-17T08:14:16,42.805,6.029,CST-1368DR,7968,11158,15388,0.059,551
2019-09-17T08:17:18,42.805,6.029,CST-1368DR,7967,11157,15389,0.059,551
2019-09-17T08:20:20,42.805,6.029,CST-1368DR,7967,11155,15387,0.059,551
2019-09-17T08:23:21,42.805,6.029,CST-1368DR,7967,11157,15389,0.059,551
2019-09-17T08:26:23,42.805,6.029,CST-1368DR,7967,11157,15390,0.058,551
2019-09-17T08:29:25,42.805,6.029,CST-1368DR,7967,11156,15387,0.059,551
2019-09-17T08:32:26,42.805,6.029,CST-1368DR,7967,11155,15386,0.059,551
2019-09-17T08:35:28,42.805,6.029,CST-1368DR,7967,11156,15388,0.059,550
2019-09-17T08:38:30,42.805,6.029,CST-1368DR,7967,11157,15389,0.059,551
2019-09-17T08:41:31,42.805,6.029,CST-1368DR,7967,11158,15390,0.058,551
2019-09-17T08:44:33,42.805,6.029,CST-1368DR,7967,11157,15390,0.058,551
2019-09-17T08:47:34,42.805,6.029,CST-1368DR,7967,11153,15384,0.060,551
2019-09-17T08:50:36,42.805,6.029,CST-1368DR,7967,11158,15390,0.058,551
2019-09-17T08:53:38,42.805,6.029,CST-1368DR,7967,11158,15390,0.058,551
2019-09-17T08:56:39,42.805,6.029,CST-1368DR,7967,11158,15391,0.058,551
2019-09-17T08:59:41,42.805,6.029,CST-1368DR,7967,11158,15390,0.058,551
2019-09-17T09:02:43,42.805,6.029,CST-1368DR,7967,11157,15389,0.059,551
2019-09-17T09:05:44,42.805,6.029,CST-1368DR,7967,11157,15390,0.058,551
2019-09-17T09:08:46,42.805,6.029,CST-1368DR,7967,11151,15381,0.061,551
2019-09-17T09:11:47,42.805,6.029,CST-1368DR,7967,11156,15388,0.059,551
2019-09-17T09:14:49,42.805,6.029,CST-1368DR,7967,11156,15387,0.059,551
2019-09-17T09:17:51,42.805,6.029,CST-1368DR,7967,11155,15386,0.059,550
2019-09-17T09:20:52,42.805,6.029,CST-1368DR,7967,11155,15386,0.059,551
2019-09-17T09:23:54,42.805,6.029,CST-1368DR,7967,11156,15388,0.059,551
2019-09-17T09:26:56,42.805,6.029,CST-1368DR,7967,11158,15390,0.058,551
2019-09-17T09:29:57,42.805,6.029,CST-1368DR,7967,11156,15387,0.059,551
2019-09-17T09:32:59,42.805,6.029,CST-1368DR,7967,11155,15386,0.059,551
2019-09-17T09:36:01,42.805,6.029,CST-1368DR,7967,11155,15387,0.059,551
2019-09-17T09:39:02,42.805,6.029,CST-1368DR,7967,11157,15389,0.059,551
2019-09-17T09:42:04,42.805,6.029,CST-1368DR,7967,11154,15385,0.060,551
2019-09-17T09:45:06,42.805,6.029,CST-1368DR,7967,11154,15385,0.060,551
2019-09-17T09:48:07,42.805,6.029,CST-1368DR,7967,11155,15386,0.059,550
2019-09-17T09:51:09,42.805,6.029,CST-1368DR,7967,11156,15387,0.059,551
2019-09-17T09:54:10,42.805,6.029,CST-1368DR,7967,11155,15386,0.059,551
2019-09-17T09:57:12,42.805,6.029,CST-1368DR,7967,11156,15387,0.059,551
2019-09-17T10:00:14,42.805,6.029,CST-1368DR,7967,11156,15387,0.059,551
2019-09-17T10:03:15,42.805,6.029,CST-1368DR,7967,11153,15384,0.060,551
2019-09-17T10:06:17,42.805,6.029,CST-1368DR,7967,11151,15381,0.061,551
2019-09-17T10:09:19,42.805,6.029,CST-1368DR,7967,11153,15384,0.060,551
2019-09-17T10:12:20,42.805,6.029,CST-1368DR,7967,11155,15387,0.059,550
2019-09-17T10:15:22,42.805,6.029,CST-1368DR,7967,11152,15382,0.060,551
2019-09-17T10:18:24,42.805,6.029,CST-1368DR,7967,11155,15386,0.059,551
2019-09-17T10:21:25,42.805,6.029,CST-1368DR,7967,11153,15383,0.060,551
2019-09-17T10:24:27,42.805,6.029,CST-1368DR,7967,11151,15381,0.061,551
2019-09-17T10:27:28,42.805,6.029,CST-1368DR,7967,11156,15388,0.059,551
2019-09-17T10:30:30,42.805,6.029,CST-1368DR,7967,11156,15387,0.059,551
2019-09-17T10:33:32,42.805,6.029,CST-1368DR,7967,11155,15386,0.059,551
2019-09-17T10:36:33,42.805,6.029,CST-1368DR,7967,11151,15381,0.061,551
2019-09-17T10:39:35,42.805,6.029,CST-1368DR,7967,11156,15388,0.059,551
2019-09-17T10:42:37,42.805,6.029,CST-1368DR,7967,11148,15376,0.062,551
2019-09-17T10:45:38,42.805,6.029,CST-1368DR,7967,11154,15385,0.060,551
2019-09-17T10:48:40,42.805,6.029,CST-1368DR,7967,11153,15384,0.060,551
2019-09-17T10:51:42,42.805,6.029,CST-1368DR,7967,11152,15383,0.060,551
2019-09-17T10:54:43,42.805,6.029,CST-1368DR,7967,11151,15381,0.061,550
2019-09-17T10:57:45,42.805,6.029,CST-1368DR,7967,11154,15384,0.060,550
2019-09-17T11:00:47,42.805,6.029,CST-1368DR,7967,11154,15385,0.060,551
2019-09-17T11:03:48,42.805,6.029,CST-1368DR,7967,11154,15384,0.060,550
2019-09-17T11:06:50,42.805,6.029,CST-1368DR,7967,11152,15382,0.060,550
2019-09-17T11:09:51,42.805,6.029,CST-1368DR,7967,11150,15379,0.061,551
2019-09-17T11:12:53,42.805,6.029,CST-1368DR,7966,11154,15386,0.059,551
2019-09-17T11:15:55,42.805,6.029,CST-1368DR,7967,11152,15382,0.060,551
2019-09-17T11:18:56,42.805,6.029,CST-1368DR,7966,11151,15383,0.060,551
2019-09-17T11:21:58,42.805,6.029,CST-1368DR,7966,11155,15388,0.059,551
2019-09-17T11:25:00,42.805,6.029,CST-1368DR,7966,11152,15384,0.060,551
2019-09-17T11:28:01,42.805,6.029,CST-1368DR,7966,11153,15385,0.060,550
2019-09-17T11:31:03,42.805,6.029,CST-1368DR,7966,11152,15383,0.060,551
2019-09-17T11:34:05,42.805,6.029,CST-1368DR,7966,11152,15384,0.060,551
2019-09-17T11:37:06,42.805,6.029,CST-1368DR,7966,11151,15382,0.060,551
2019-09-17T11:40:08,42.805,6.029,CST-1368DR,7966,11152,15383,0.060,551
2019-09-17T11:43:09,42.805,6.029,CST-1368DR,7966,11150,15381,0.061,551
2019-09-17T11:46:11,42.805,6.029,CST-1368DR,7966,11151,15383,0.060,551
2019-09-17T11:49:13,42.805,6.029,CST-1368DR,7966,11148,15379,0.061,551
2019-09-17T11:52:14,42.805,6.029,CST-1368DR,7966,11144,15373,0.063,551
2019-09-17T11:55:16,42.805,6.029,CST-1368DR,7966,11118,15337,0.072,551
2019-09-17T11:58:18,42.805,6.029,CST-1368DR,7966,11139,15367,0.064,551
2019-09-17T12:01:20,42.805,6.029,CST-1368DR,7966,11147,15378,0.061,551
2019-09-17T12:04:22,42.805,6.029,CST-1368DR,7966,11147,15377,0.062,551
2019-09-17T12:07:23,42.805,6.029,CST-1368DR,7966,11149,15380,0.061,551
2019-09-17T12:10:25,42.805,6.029,CST-1368DR,7966,11151,15382,0.060,551
2019-09-17T12:13:27,42.805,6.029,CST-1368DR,7966,11150,15381,0.061,550
2019-09-17T12:16:29,42.805,6.029,CST-1368DR,7966,11149,15380,0.061,551
2019-09-17T12:19:30,42.805,6.029,CST-1368DR,7966,11151,15383,0.060,550
2019-09-17T12:22:32,42.805,6.029,CST-1368DR,7966,11151,15383,0.060,551
2019-09-17T12:25:33,42.805,6.029,CST-1368DR,7966,11150,15381,0.061,551
2019-09-17T12:28:35,42.805,6.029,CST-1368DR,7966,11151,15382,0.060,551
2019-09-17T12:31:37,42.805,6.029,CST-1368DR,7966,11151,15382,0.060,551
2019-09-17T12:34:39,42.805,6.029,CST-1368DR,7966,11152,15383,0.060,551
2019-09-17T12:37:40,42.805,6.029,CST-1368DR,7966,11151,15382,0.060,550
2019-09-17T12:40:42,42.805,6.029,CST-1368DR,7966,11152,15384,0.060,551
2019-09-17T12:43:44,42.805,6.029,CST-1368DR,7966,11153,15385,0.060,551
2019-09-17T12:46:45,42.805,6.029,CST-1368DR,7966,11152,15384,0.060,551
2019-09-17T12:49:47,42.805,6.029,CST-1368DR,7966,11152,15384,0.060,551
2019-09-17T12:52:49,42.805,6.029,CST-1368DR,7966,11153,15385,0.060,551
2019-09-17T12:55:50,42.805,6.029,CST-1368DR,7966,11153,15385,0.060,551
2019-09-17T12:58:52,42.805,6.029,CST-1368DR,7966,11152,15384,0.060,551
2019-09-17T13:01:53,42.805,6.029,CST-1368DR,7966,11152,15384,0.060,550
2019-09-17T13:04:55,42.805,6.029,CST-1368DR,7966,11151,15383,0.060,551
2019-09-17T13:07:57,42.805,6.029,CST-1368DR,7966,11152,15384,0.060,551
2019-09-17T13:10:58,42.805,6.029,CST-1368DR,7966,11153,15385,0.060,551
2019-09-17T13:14:00,42.805,6.029,CST-1368DR,7966,11153,15385,0.060,551
2019-09-17T13:17:02,42.805,6.029,CST-1368DR,7966,11151,15383,0.060,551
2019-09-17T13:20:03,42.805,6.029,CST-1368DR,7966,11152,15384,0.060,551
2019-09-17T13:23:05,42.805,6.029,CST-1368DR,7966,11153,15386,0.059,551
2019-09-17T13:26:06,42.805,6.029,CST-1368DR,7966,11152,15384,0.060,551
2019-09-17T13:29:08,42.805,6.029,CST-1368DR,7965,11151,15385,0.060,551
2019-09-17T13:32:10,42.805,6.029,CST-1368DR,7965,11153,15387,0.059,551
2019-09-17T13:35:11,42.805,6.029,CST-1368DR,7965,11152,15386,0.059,551
2019-09-17T13:38:14,42.805,6.029,CST-1368DR,7965,11152,15386,0.059,551
2019-09-17T13:41:15,42.805,6.029,CST-1368DR,7965,11153,15387,0.059,551
2019-09-17T13:44:17,42.805,6.029,CST-1368DR,7965,11152,15386,0.059,551
2019-09-17T13:47:19,42.805,6.029,CST-1368DR,7965,11152,15386,0.059,551
2019-09-17T13:50:20,42.805,6.029,CST-1368DR,7965,11151,15385,0.060,551
2019-09-17T13:53:22,42.805,6.029,CST-1368DR,7965,11151,15385,0.060,551
2019-09-17T13:56:23,42.805,6.029,CST-1368DR,7965,11152,15385,0.060,551
2019-09-17T13:59:25,42.805,6.029,CST-1368DR,7965,11151,15384,0.060,550
2019-09-17T14:02:27,42.805,6.029,CST-1368DR,7965,11149,15382,0.060,551
2019-09-17T14:05:28,42.805,6.029,CST-1368DR,7965,11151,15384,0.060,551
2019-09-17T14:08:30,42.805,6.029,CST-1368DR,7965,11152,15386,0.059,551
2019-09-17T14:11:32,42.805,6.029,CST-1368DR,7965,11153,15387,0.059,551
2019-09-17T14:14:33,42.805,6.029,CST-1368DR,7965,11152,15385,0.060,551
2019-09-17T14:17:35,42.805,6.029,CST-1368DR,7965,11152,15386,0.059,551
2019-09-17T14:20:36,42.805,6.029,CST-1368DR,7965,11150,15383,0.060,551
2019-09-17T14:23:38,42.805,6.029,CST-1368DR,7965,11151,15385,0.060,551
2019-09-17T14:26:40,42.805,6.029,CST-1368DR,7965,11150,15383,0.060,551
2019-09-17T14:29:41,42.805,6.029,CST-1368DR,7965,11152,15386,0.059,551
2019-09-17T14:32:43,42.805,6.029,CST-1368DR,7965,11152,15386,0.059,551
2019-09-17T14:35:45,42.805,6.029,CST-1368DR,7965,11149,15382,0.060,551
2019-09-17T14:38:46,42.805,6.029,CST-1368DR,7965,11152,15386,0.059,551
2019-09-17T14:41:48,42.805,6.029,CST-1368DR,7965,11151,15384,0.060,551
2019-09-17T14:44:50,42.805,6.029,CST-1368DR,7965,11151,15385,0.060,551
2019-09-17T14:47:51,42.805,6.029,CST-1368DR,7965,11152,15386,0.059,551
2019-09-17T14:50:53,42.805,6.029,CST-1368DR,7965,11152,15386,0.059,550
2019-09-17T14:53:54,42.805,6.029,CST-1368DR,7965,11152,15386,0.059,551
2019-09-17T14:56:56,42.805,6.029,CST-1368DR,7965,11152,15386,0.059,551
2019-09-17T14:59:58,42.805,6.029,CST-1368DR,7965,11152,15386,0.059,551
2019-09-17T15:02:59,42.805,6.029,CST-1368DR,7965,11150,15383,0.060,551
2019-09-17T15:06:01,42.805,6.029,CST-1368DR,7965,11151,15385,0.060,551
2019-09-17T15:09:03,42.805,6.029,CST-1368DR,7965,11152,15386,0.059,551
2019-09-17T15:12:04,42.805,6.029,CST-1368DR,7965,11153,15387,0.059,551
2019-09-17T15:15:06,42.805,6.029,CST-1368DR,7965,11152,15386,0.059,551
2019-09-17T15:18:08,42.805,6.029,CST-1368DR,7965,11152,15386,0.059,551
2019-09-17T15:21:09,42.805,6.029,CST-1368DR,7965,11150,15382,0.060,551
2019-09-17T15:24:11,42.805,6.029,CST-1368DR,7964,11152,15388,0.059,551
2019-09-17T15:27:13,42.805,6.029,CST-1368DR,7965,11151,15385,0.060,550
2019-09-17T15:30:14,42.805,6.029,CST-1368DR,7964,11152,15387,0.059,551
2019-09-17T15:33:16,42.805,6.029,CST-1368DR,7964,11152,15387,0.059,551
2019-09-17T15:36:17,42.805,6.029,CST-1368DR,7965,11149,15381,0.061,551
2019-09-17T15:39:19,42.805,6.029,CST-1368DR,7965,11151,15385,0.060,550
2019-09-17T15:42:21,42.805,6.029,CST-1368DR,7964,11152,15387,0.059,551
2019-09-17T15:45:22,42.805,6.029,CST-1368DR,7964,11152,15387,0.059,551
2019-09-17T15:48:24,42.805,6.029,CST-1368DR,7964,11152,15387,0.059,551
2019-09-17T15:51:26,42.805,6.029,CST-1368DR,7964,11151,15386,0.059,551
2019-09-17T15:54:27,42.805,6.029,CST-1368DR,7964,11150,15385,0.060,551
2019-09-17T15:57:29,42.805,6.029,CST-1368DR,7964,11149,15384,0.060,551
2019-09-17T16:00:30,42.805,6.029,CST-1368DR,7964,11151,15386,0.059,551
2019-09-17T16:03:32,42.805,6.029,CST-1368DR,7964,11151,15386,0.059,551
2019-09-17T16:06:34,42.805,6.029,CST-1368DR,7964,11150,15385,0.060,551
2019-09-17T16:09:35,42.805,6.029,CST-1368DR,7964,11151,15387,0.059,551
2019-09-17T16:12:37,42.805,6.029,CST-1368DR,7964,11150,15385,0.060,551
2019-09-17T16:15:39,42.805,6.029,CST-1368DR,7964,11150,15384,0.060,551
2019-09-17T16:18:40,42.805,6.029,CST-1368DR,7964,11151,15386,0.059,551
2019-09-17T16:21:42,42.805,6.029,CST-1368DR,7964,11153,15389,0.059,551
2019-09-17T16:24:44,42.805,6.029,CST-1368DR,7964,11152,15387,0.059,551
2019-09-17T16:27:45,42.805,6.029,CST-1368DR,7964,11153,15389,0.059,551
2019-09-17T16:30:47,42.805,6.029,CST-1368DR,7964,11152,15388,0.059,550
2019-09-17T16:33:48,42.805,6.029,CST-1368DR,7964,11153,15388,0.059,551
2019-09-17T16:36:50,42.805,6.029,CST-1368DR,7964,11152,15388,0.059,551